Location: ??????????
(44.2167°N, 135.5333°E)
Time: 13:59:30
(UTC+00:00)

Cosmos 1802 Rocket - Pass Details

Date: 15 June 2025
Orbit: 954 x 1010 km, 82.9° (Epoch: 15 July)

Event Time Altitude Azimuth Distance (km) Brightness Sun altitude
Rises 12:23:43 0° 353° (N) 3,754 8.2 -13.7°
Reaches altitude 10° 12:26:17 10° 355° (N) 2,800 7.3 -14.0°
Maximum altitude 12:32:45 75° 81° (E) 1,044 4.1 -14.7°
Enters shadow 12:37:21 20° 164° (SSE) 2,130 5.2 -15.1°
